[[{"header":{"parameterUnit":"m.s-1","parameterCategory":1,"la1":30.2991,"la2":30.254,"lo1":-89.0895,"lo2":-89.0444,"dy":0.0017,"dx":0.0017,"nx":28,"ny":28,"refTime":"2024-05-21T03:00:00:Z","depth":0,"parameterNumber":2,"parameterNumberName":"U-component_of_WINDS"},"data":[0,0,0,0,0,0,0,0,0,0,0,0,0,0,0,0,0,0,0,0,0,0,0,0,0,0,0,0,0,0,0,0,0,0,0,0,0,0,0,0,0,0,0,0,0,0,0,0,0,0,0,0,0,0,0,0,0,0,-0.854,-0.8541,0,-0.8604,-0.8605,-0.8606,-0.8624,-0.8623,-0.8623,-0.8623,-0.8691,-0.8693,-0.8695,0,0,0,0,0,0,0,0,0,0,0,0,0,-0.8437,-0.8439,-0.854,-0.8541,-0.8542,-0.8604,-0.8605,-0.8606,-0.8624,-0.8623,-0.8623,-0.8623,-0.869,-0.8693,-0.8695,0,0,0,0,0,0,0,0,0,0,0,0,0,-0.8489,-0.8439,-0.854,-0.8558,-0.8561,-0.8604,-0.8605,-0.8606,-0.8624,-0.8623,-0.8623,-0.8622,-0.8689,-0.8692,-0.8696,-0.8726,0,0,-0.8705,-0.8707,0,0,0,0,0,0,0,0,-0.8486,-0.8493,-0.8555,-0.8557,-0.856,-0.8605,-0.8594,-0.8646,-0.8624,-0.86,-0.8623,-0.8622,-0.8663,-0.8668,-0.8682,-0.8729,-0.8732,-0.8706,-0.8708,-0.8709,-0.871,0,0,0,0,0,0,0,-0.8483,-0.8491,-0.8566,-0.8556,-0.8559,-0.8564,-0.8571,-0.8604,-0.8634,-0.8602,-0.8604,-0.8611,-0.8664,-0.8678,-0.8683,-0.8733,-0.8706,-0.8708,-0.871,-0.8712,-0.8811,-0.8812,0,0,0,0,0,0,-0.8476,-0.8487,-0.8564,-0.8568,-0.8521,-0.8567,-0.8574,-0.8591,-0.8633,-0.8639,-0.8611,-0.8611,-0.8673,-0.868,-0.8686,-0.8725,-0.8709,-0.8712,-0.8714,-0.881,-0.8811,-0.8812,0,0,0,0,0,0,-0.8473,-0.8482,-0.8561,-0.8528,-0.8538,-0.8569,-0.8588,-0.8593,-0.8607,-0.864,-0.8646,-0.862,-0.8673,-0.8681,-0.8716,-0.8728,-0.8713,-0.8716,-0.8809,-0.8811,-0.8811,-0.8804,0,0,0,0,0,0,-0.847,-0.8481,-0.8492,-0.8528,-0.854,-0.8589,-0.8589,-0.8595,-0.8612,-0.8613,-0.865,-0.8656,-0.8673,-0.8711,-0.8719,-0.8732,-0.8719,-0.8809,-0.881,-0.8811,-0.8803,-0.8805,-0.8806,0,0,0,0,0,-0.8467,-0.8488,-0.8493,-0.8502,-0.8554,-0.859,-0.8597,-0.8616,-0.8613,-0.8625,-0.8647,-0.8654,-0.8725,-0.8715,-0.8724,-0.8738,-0.8808,-0.881,-0.8811,-0.8803,-0.8804,-0.8806,0,0,0,0,0,0,-0.8454,-0.8493,-0.8499,-0.8532,-0.8558,-0.8593,-0.8609,-0.8617,-0.8644,-0.8644,-0.8667,-0.8676,-0.8709,-0.8727,-0.8714,-0.877,-0.8767,-0.877,-0.8757,-0.8759,-0.876,-0.8756,-0.8722,0,0,0,0,0,-0.8455,-0.8479,-0.8513,-0.8539,-0.8551,-0.8578,-0.8594,-0.8606,-0.8634,-0.8645,-0.8669,-0.8696,-0.8725,-0.8743,-0.8771,-0.8806,-0.8815,-0.882,-0.8821,-0.8822,-0.8825,-0.8846,-0.8849,-0.8817,-0.8817,-0.8817,0,0,-0.8457,-0.8482,-0.8496,-0.8537,-0.8558,-0.8584,-0.8587,-0.8614,-0.8634,-0.8649,-0.8684,-0.8702,-0.8734,-0.877,-0.8787,-0.8786,-0.8836,-0.8824,-0.8825,-0.8827,-0.8848,-0.8851,-0.8854,-0.8818,-0.8818,-0.8818,0,0,-0.8476,-0.8496,-0.8521,-0.8542,-0.8573,-0.8591,-0.8597,-0.8631,-0.8644,-0.8678,-0.8691,-0.8715,-0.8764,-0.8786,-0.8804,-0.8831,-0.884,-0.884,-0.8846,-0.8867,-0.8869,-0.8872,-0.8882,-0.8886,-0.8843,-0.8843,-0.8843,0,-0.8475,-0.8514,-0.8533,-0.8559,-0.8578,-0.8592,-0.8618,-0.8638,-0.8677,-0.869,-0.8688,-0.875,-0.8772,-0.8814,-0.882,-0.8834,-0.8842,-0.8836,-0.8867,-0.887,-0.8872,-0.8883,-0.8887,-0.8842,-0.8842,-0.8842,-0.8842,0,-0.8512,-0.8539,-0.8555,-0.8592,-0.8612,-0.8638,-0.8662,-0.8681,-0.8692,-0.871,-0.8746,-0.8773,-0.8807,-0.8818,-0.8829,-0.8861,-0.886,-0.8862,-0.8859,-0.8875,-0.8885,-0.8889,-0.8842,-0.8842,-0.8842,-0.8842,0,0,-0.8524,-0.8571,-0.8577,-0.8594,-0.8631,-0.8652,-0.868,-0.8712,-0.8728,-0.8755,-0.8779,-0.882,-0.8823,-0.8843,-0.8857,-0.8875,-0.8896,-0.8875,-0.8876,-0.8879,-0.8934,-0.8933,-0.8937,-0.8902,-0.8902,-0.8903,-0.8932,0,-0.8547,-0.8596,-0.8614,-0.8654,-0.868,-0.8694,-0.8718,-0.8744,-0.8762,-0.8787,-0.8807,-0.8836,-0.8836,-0.8849,-0.8867,-0.8889,-0.8907,-0.8887,-0.8926,-0.8927,-0.8918,-0.8942,-0.8941,-0.8967,-0.8936,-0.8937,-0.8937,0,-0.8581,-0.8607,-0.865,-0.8684,-0.8695,-0.8716,-0.8748,-0.8772,-0.8802,-0.8813,-0.8836,-0.8849,-0.8879,-0.8874,-0.8917,-0.8903,-0.892,-0.8933,-0.8935,-0.894,-0.8933,-0.8949,-0.8975,-0.8979,-0.8944,-0.8943,-0.8943,0,-0.8586,-0.8633,-0.8665,-0.8679,-0.8719,-0.8734,-0.8751,-0.878,-0.8799,-0.8827,-0.884,-0.8872,-0.8889,-0.8914,-0.8936,-0.893,-0.8977,-0.8973,-0.8989,-0.8988,-0.8999,-0.8998,-0.9029,-0.9008,-0.9008,-0.9008,-0.9008,0,-0.8611,-0.8637,-0.8668,-0.8687,-0.8717,-0.8738,-0.8767,-0.8786,-0.8812,-0.8836,-0.8851,-0.8874,-0.89,-0.8927,-0.8944,-0.8978,-0.8985,-0.8997,-0.9001,-0.8996,-0.8995,-0.9008,-0.9007,-0.9009,-0.9009,-0.9009,-0.9009,0,-0.8623,-0.8644,-0.868,-0.8715,-0.8724,-0.8744,-0.8775,-0.8795,-0.8813,-0.8844,-0.8853,-0.8882,-0.8914,-0.8938,-0.898,-0.8991,-0.9028,-0.9032,-0.9017,-0.902,-0.9034,-0.9033,-0.9075,-0.9083,-0.9056,-0.9056,-0.9056,0,-0.8637,-0.8657,-0.8694,-0.8711,-0.8728,-0.8755,-0.8774,-0.8796,-0.8816,-0.8851,-0.8868,-0.8901,-0.8928,-0.8979,-0.9005,-0.9037,-0.9043,-0.9055,-0.9048,-0.9042,-0.9044,-0.9043,-0.9046,-0.9057,-0.9057,-0.9057,-0.9057,0,-0.8661,-0.8671,-0.8698,-0.8728,-0.875,-0.8776,-0.8801,-0.8815,-0.8841,-0.8863,-0.8895,-0.8917,-0.8959,-0.8992,-0.9027,-0.9046,-0.9057,-0.9059,-0.9065,-0.906,-0.9051,-0.9057,-0.9021,-0.9058,-0.9058,-0.9058,-0.9058,-0.9058,-0.8676,-0.8695,-0.8723,-0.8753,-0.8774,-0.8798,-0.8819,-0.884,-0.8867,-0.8902,-0.8914,-0.8948,-0.8978,-0.9026,-0.9046,-0.9073,-0.9073,-0.9081,-0.9083,-0.9085,-0.9085,-0.9046,-0.908,-0.908,-0.908,-0.908,-0.908,0,-0.8701,-0.8721,-0.8747,-0.8782,-0.8806,-0.8812,-0.8841,-0.8861,-0.889,-0.8917,-0.8944,-0.8982,-0.9014,-0.9042,-0.9076,-0.9093,-0.9098,-0.9101,-0.91,-0.9105,-0.9083,-0.9075,-0.9096,-0.9096,-0.9096,-0.9096,-0.9096,-0.9096,-0.8718,-0.875,-0.8763,-0.8807,-0.8826,-0.8859,-0.8875,-0.8898,-0.8919,-0.8961,-0.8987,-0.9005,-0.9033,-0.9069,-0.9099,-0.9107,-0.9119,-0.912,-0.9129,-0.9108,-0.9106,-0.9105,-0.9097,-0.9123,-0.9123,-0.9149,-0.9149,-0.915]},{"header":{"parameterUnit":"m.s-1","parameterCategory":1,"la1":30.2991,"la2":30.254,"lo1":-89.0895,"lo2":-89.0444,"dy":0.0017,"dx":0.0017,"nx":28,"ny":28,"refTime":"2024-05-21T03:00:00:Z","depth":0,"parameterNumber":3,"parameterNumberName":"V-component_of_WINDS"},"data":[0,0,0,0,0,0,0,0,0,0,0,0,0,0,0,0,0,0,0,0,0,0,0,0,0,0,0,0,0,0,0,0,0,0,0,0,0,0,0,0,0,0,0,0,0,0,0,0,0,0,0,0,0,0,0,0,0,0,3.1935,3.1935,0,3.1924,3.1924,3.1924,3.1861,3.1859,3.1858,3.1856,3.1846,3.1847,3.1848,0,0,0,0,0,0,0,0,0,0,0,0,0,3.1899,3.19,3.1935,3.1935,3.1935,3.1924,3.1924,3.1924,3.1861,3.1859,3.1857,3.1856,3.1845,3.1847,3.1848,0,0,0,0,0,0,0,0,0,0,0,0,0,3.1905,3.1901,3.1935,3.1902,3.1899,3.1924,3.1924,3.1924,3.1862,3.1859,3.1857,3.1855,3.1845,3.1846,3.1848,3.1904,0,0,3.1853,3.1854,0,0,0,0,0,0,0,0,3.1904,3.1906,3.1907,3.1904,3.1901,3.1891,3.1908,3.1917,3.1862,3.1876,3.1856,3.1854,3.1863,3.1863,3.1866,3.1904,3.1903,3.1853,3.1854,3.1855,3.1856,0,0,0,0,0,0,0,3.1904,3.1906,3.1931,3.1907,3.1903,3.1887,3.1886,3.1909,3.1882,3.1874,3.187,3.1869,3.1861,3.1864,3.1865,3.1903,3.1853,3.1855,3.1856,3.1857,3.1984,3.1986,0,0,0,0,0,0,3.1908,3.1906,3.1931,3.193,3.1897,3.189,3.1888,3.1897,3.1882,3.1877,3.1871,3.1866,3.1863,3.1863,3.1865,3.1927,3.1855,3.1857,3.1858,3.1982,3.1985,3.1987,0,0,0,0,0,0,3.1908,3.1911,3.1931,3.1917,3.1918,3.1893,3.1904,3.1898,3.1901,3.1879,3.1874,3.188,3.1861,3.1862,3.1894,3.1926,3.1858,3.1859,3.1979,3.1983,3.1986,3.2055,0,0,0,0,0,0,3.1907,3.1911,3.1933,3.1918,3.1919,3.1962,3.1906,3.1899,3.1905,3.1898,3.1886,3.1882,3.1859,3.1892,3.1896,3.1927,3.186,3.1976,3.1981,3.1985,3.205,3.2061,3.207,0,0,0,0,0,3.1906,3.1953,3.1934,3.1938,3.1946,3.1964,3.1965,3.1937,3.1907,3.1928,3.1914,3.1883,3.1922,3.1896,3.19,3.1932,3.1974,3.1979,3.1985,3.2045,3.2059,3.207,0,0,0,0,0,0,3.1973,3.1951,3.1929,3.1973,3.1971,3.1953,3.1979,3.1952,3.1958,3.1952,3.1918,3.1916,3.1952,3.1946,3.1917,3.1985,3.1943,3.1949,3.1988,3.2,3.201,3.201,3.1862,0,0,0,0,0,3.1993,3.201,3.1989,3.203,3.203,3.2005,3.2012,3.1991,3.1987,3.1986,3.1974,3.1971,3.1982,3.1991,3.2001,3.2049,3.2044,3.2073,3.2083,3.2091,3.2097,3.212,3.2132,3.2005,3.2005,3.2005,0,0,3.2034,3.2024,3.2037,3.2043,3.2039,3.2056,3.2004,3.2026,3.2038,3.1989,3.2018,3.2009,3.2004,3.2044,3.2061,3.2039,3.2131,3.2098,3.2105,3.2106,3.2126,3.2139,3.2149,3.2008,3.2008,3.2007,0,0,3.2118,3.2113,3.2145,3.2142,3.2135,3.2118,3.2126,3.2112,3.2104,3.2133,3.2095,3.211,3.2131,3.2128,3.213,3.2211,3.2181,3.2215,3.2267,3.229,3.23,3.2308,3.2336,3.2346,3.2221,3.2221,3.2221,0,3.217,3.2195,3.2165,3.2188,3.2191,3.2147,3.2179,3.2177,3.2174,3.2177,3.2153,3.2178,3.2171,3.2209,3.2229,3.2232,3.2239,3.2216,3.2301,3.2309,3.2317,3.2342,3.2353,3.2225,3.2225,3.2224,3.2224,0,3.2259,3.2277,3.2304,3.2301,3.2307,3.2335,3.2308,3.2318,3.2296,3.2281,3.231,3.2301,3.2307,3.2314,3.2294,3.2349,3.2335,3.2307,3.2264,3.2333,3.2357,3.2366,3.2231,3.2229,3.2228,3.2227,0,0,3.2385,3.2365,3.2375,3.2372,3.2362,3.2375,3.24,3.2405,3.2413,3.2413,3.2432,3.2451,3.2423,3.2425,3.2404,3.2424,3.2487,3.2392,3.2391,3.2409,3.2545,3.2566,3.2578,3.2468,3.2469,3.2471,3.2545,0,3.2464,3.2505,3.2478,3.2523,3.2538,3.2496,3.2517,3.2513,3.2499,3.251,3.2495,3.2508,3.2472,3.2472,3.249,3.2475,3.2513,3.247,3.2484,3.2485,3.2485,3.259,3.2612,3.2683,3.2554,3.2555,3.2557,0,3.2562,3.2564,3.2611,3.2595,3.2601,3.2621,3.2622,3.2634,3.2627,3.2616,3.2617,3.259,3.2612,3.2571,3.26,3.2571,3.2576,3.2569,3.2571,3.257,3.2524,3.2591,3.2705,3.2715,3.2571,3.257,3.2569,0,3.2647,3.2663,3.2692,3.2691,3.2674,3.2689,3.2683,3.2674,3.2678,3.268,3.2682,3.2687,3.2689,3.2693,3.2668,3.264,3.27,3.2657,3.2691,3.2691,3.2705,3.2704,3.2819,3.271,3.271,3.2709,3.2709,0,3.2737,3.2767,3.2729,3.2748,3.2779,3.2747,3.2779,3.2769,3.2761,3.2775,3.2739,3.2754,3.272,3.2731,3.2711,3.2738,3.2739,3.273,3.2724,3.2733,3.2734,3.2734,3.2728,3.2712,3.2712,3.2711,3.2711,0,3.2838,3.2814,3.2843,3.2824,3.282,3.2844,3.2827,3.2843,3.2826,3.2845,3.2848,3.2822,3.2833,3.2808,3.2815,3.2802,3.284,3.2827,3.2842,3.2837,3.2872,3.2868,3.299,3.3004,3.2888,3.2889,3.289,0,3.2896,3.2918,3.2901,3.2908,3.2903,3.2915,3.2919,3.2888,3.2894,3.2887,3.2903,3.291,3.2915,3.2933,3.2915,3.2921,3.2907,3.2949,3.2907,3.2914,3.2905,3.2904,3.2905,3.2957,3.2959,3.296,3.2961,0,3.3002,3.2989,3.2996,3.2998,3.3004,3.3005,3.3003,3.3011,3.2977,3.2985,3.2995,3.2999,3.3005,3.3013,3.3014,3.3006,3.2978,3.2974,3.2982,3.299,3.2997,3.2992,3.2864,3.2971,3.297,3.297,3.2969,3.2969,3.3082,3.3099,3.3089,3.3097,3.3092,3.3091,3.3104,3.3089,3.3097,3.3099,3.3081,3.3094,3.3086,3.3084,3.3079,3.3089,3.307,3.3082,3.3084,3.3087,3.3092,3.2997,3.309,3.3089,3.3089,3.3089,3.3088,0,3.3185,3.3176,3.3184,3.3182,3.3188,3.3161,3.3157,3.3164,3.3176,3.3171,3.3175,3.3186,3.3193,3.3175,3.3179,3.319,3.3177,3.3192,3.319,3.3189,3.311,3.3102,3.3202,3.3202,3.3202,3.3202,3.3202,3.3202,3.3239,3.3265,3.325,3.3273,3.3264,3.3276,3.3276,3.3274,3.3269,3.3283,3.3288,3.3276,3.3265,3.3268,3.3272,3.3267,3.3269,3.3289,3.3279,3.3206,3.3194,3.3184,3.3176,3.329,3.329,3.3356,3.3357,3.3357]}]]